Horseshoe Bay, TX

11:06 PM MDT on September 21, 2017 (GMT -0600)
Horseshoe Bay

Weather History for KDZB - September, 2013

Change the Weather History Date:

Saturday, September 14, 2013

  Actual Average (KBMQ) Record (KBMQ)
Temperature  
Mean Temperature 82 °F -  
Max Temperature 95 °F 86 °F 100 °F (2011)
Min Temperature 68 °F 67 °F 63 °F (2003)
Cooling Degree Days 16    
Growing Degree Days 32 (Base 50)    
Moisture  
Dew Point 61 °F    
Average Humidity 49    
Maximum Humidity 74    
Minimum Humidity 28    
Precipitation  
Precipitation 0.00 in - - ()
Sea Level Pressure  
Sea Level Pressure 29.91 in    
Wind  
Wind Speed 4 mph (SE)    
Max Wind Speed 15 mph    
Max Gust Speed 21 mph    
Visibility 10 miles    
Events Rain    
Averages and records for this station are not official NWS values.
T = Trace of Precipitation, MM = Missing Value Source: NWS Daily Summary

Daily Weather History Graph

Daily Weather History Graph

Search for Another Location

Airport or City:

Trip Planner

Search our weather history database for the weather conditions in past years. The results will help you decide how hot, cold, wet, or windy it might be!

Date:

Astronomy

Sep. 14, 2013 Rise Set
Actual Time 6:17 AM MDT 6:39 PM MDT
Civil Twilight 5:53 AM MDT 7:03 PM MDT
Nautical Twilight 5:25 AM MDT 7:32 PM MDT
Astronomical Twilight 4:56 AM MDT 8:00 PM MDT
Moon 3:07 PM MDT (9/14) 1:07 AM MDT (9/14)
Length of Visible Light 13h 10m
Length of Day
12h 22m
Waxing Gibbous, 73% of the Moon is Illuminated
Sep 14
Waxing Gibbous
Sep 19
Full
Sep 26
Last Quarter
Oct 4
New
Oct 11
First Quarter

Hourly Weather History & Observations

Time (MDT) Temp. Heat Index Dew Point Humidity Pressure Visibility Wind Dir Wind Speed Gust Speed Precip Events Conditions
12:15 AM 79.3 °F - 59.9 °F 51% 29.90 in 10.0 mi South 8.1 mph - N/A   Clear
12:35 AM 79.0 °F - 61.5 °F 55% 29.90 in 10.0 mi SSW 4.6 mph - N/A   Clear
12:55 AM 78.3 °F - 61.9 °F 57% 29.89 in 10.0 mi South 3.5 mph - N/A   Clear
1:15 AM 78.1 °F - 62.1 °F 58% 29.90 in 10.0 mi South 4.6 mph - N/A   Clear
1:35 AM 77.9 °F - 61.2 °F 56% 29.90 in 10.0 mi SSW 5.8 mph - N/A   Clear
1:55 AM 77.5 °F - 61.2 °F 57% 29.90 in 10.0 mi Calm Calm - N/A   Clear
2:15 AM 77.2 °F - 61.3 °F 58% 29.90 in 10.0 mi Calm Calm - N/A   Clear
2:35 AM 77.0 °F - 61.7 °F 59% 29.90 in 10.0 mi Calm Calm - N/A   Scattered Clouds
2:55 AM 75.9 °F - 61.7 °F 61% 29.90 in 10.0 mi Calm Calm - N/A   Scattered Clouds
3:15 AM 74.3 °F - 61.7 °F 65% 29.90 in 10.0 mi Calm Calm - N/A   Mostly Cloudy
3:35 AM 72.5 °F - 61.2 °F 67% 29.90 in 10.0 mi Calm Calm - N/A   Scattered Clouds
3:55 AM 71.6 °F - 60.8 °F 69% 29.90 in 10.0 mi Calm Calm - N/A   Clear
4:15 AM 70.9 °F - 60.8 °F 70% 29.90 in 10.0 mi Calm Calm - N/A   Clear
4:35 AM 70.0 °F - 60.8 °F 73% 29.90 in 10.0 mi Calm Calm - N/A   Clear
4:55 AM 69.6 °F - 60.4 °F 73% 29.91 in 10.0 mi Calm Calm - N/A   Clear
5:15 AM 69.1 °F - 60.4 °F 74% 29.91 in 10.0 mi Calm Calm - N/A   Clear
5:35 AM 68.9 °F - 60.3 °F 74% 29.92 in 10.0 mi Calm Calm - N/A   Scattered Clouds
5:55 AM 69.1 °F - 60.4 °F 74% 29.92 in 10.0 mi Calm Calm - N/A   Scattered Clouds
6:15 AM 69.1 °F - 60.6 °F 74% 29.92 in 10.0 mi Calm Calm - N/A   Scattered Clouds
6:35 AM 69.8 °F - 60.8 °F 73% 29.92 in 10.0 mi Calm Calm - N/A   Scattered Clouds
6:55 AM 70.5 °F - 61.2 °F 72% 29.93 in 10.0 mi Calm Calm - N/A   Clear
7:15 AM 72.7 °F - 61.9 °F 69% 29.94 in 10.0 mi Calm Calm - N/A   Clear
7:35 AM 75.7 °F - 62.2 °F 63% 29.94 in 5.0 mi Calm Calm - N/A   Haze
7:55 AM 77.7 °F - 62.4 °F 59% 29.95 in 10.0 mi Calm Calm - N/A   Scattered Clouds
8:15 AM 78.6 °F - 64.2 °F 61% 29.95 in 10.0 mi Calm Calm - N/A   Clear
8:35 AM 80.2 °F 81.5 °F 62.8 °F 55% 29.95 in 7.0 mi Calm Calm - N/A   Clear
8:55 AM 81.0 °F 82.1 °F 62.4 °F 53% 29.96 in 7.0 mi Calm Calm - N/A   Scattered Clouds
9:15 AM 83.3 °F 84.3 °F 62.8 °F 50% 29.96 in 7.0 mi North 3.5 mph - N/A   Scattered Clouds
9:35 AM 84.7 °F 85.0 °F 61.3 °F 45% 29.96 in 10.0 mi Calm Calm - N/A   Clear
9:55 AM 85.8 °F 85.0 °F 57.9 °F 39% 29.97 in 10.0 mi NNE 3.5 mph - N/A   Clear
10:15 AM 87.6 °F 86.3 °F 57.0 °F 35% 29.97 in 10.0 mi East 3.5 mph - N/A   Clear
10:35 AM 88.7 °F 87.1 °F 56.1 °F 33% 29.96 in 10.0 mi SSE 3.5 mph - N/A   Clear
10:55 AM 89.8 °F 88.4 °F 57.4 °F 33% 29.96 in 10.0 mi SE 4.6 mph - N/A   Clear
11:15 AM 90.7 °F 89.2 °F 57.0 °F 32% 29.95 in 10.0 mi East 8.1 mph - N/A   Scattered Clouds
11:35 AM 88.9 °F 87.5 °F 56.8 °F 34% 29.95 in 10.0 mi ESE 6.9 mph - N/A   Scattered Clouds
11:55 AM 92.3 °F 91.0 °F 57.7 °F 31% 29.94 in 10.0 mi SE 4.6 mph - N/A   Scattered Clouds
12:15 PM 92.8 °F 91.1 °F 56.3 °F 29% 29.93 in 10.0 mi SSE 4.6 mph - N/A   Scattered Clouds
12:35 PM 92.8 °F 91.7 °F 57.9 °F 31% 29.92 in 10.0 mi SE 9.2 mph - N/A   Scattered Clouds
12:55 PM 93.6 °F 92.7 °F 58.5 °F 31% 29.92 in 10.0 mi ESE 5.8 mph 20.7 mph N/A   Clear
1:15 PM 94.6 °F 93.9 °F 58.5 °F 30% 29.91 in 10.0 mi East 6.9 mph - N/A   Scattered Clouds
1:35 PM 94.5 °F 93.3 °F 57.7 °F 29% 29.90 in 10.0 mi SSE 6.9 mph - N/A   Scattered Clouds
1:55 PM 95.7 °F 94.7 °F 57.7 °F 28% 29.89 in 10.0 mi SE 6.9 mph - N/A   Mostly Cloudy
2:15 PM 94.5 °F 93.3 °F 57.4 °F 29% 29.88 in 10.0 mi ESE 4.6 mph - N/A   Mostly Cloudy
2:35 PM 94.5 °F 93.3 °F 57.6 °F 29% 29.88 in 10.0 mi ESE 5.8 mph - N/A   Mostly Cloudy
2:55 PM 94.6 °F 93.5 °F 57.9 °F 29% 29.87 in 10.0 mi SE 4.6 mph - N/A   Scattered Clouds
3:15 PM 95.5 °F 94.8 °F 58.5 °F 29% 29.86 in 10.0 mi SE 9.2 mph - N/A   Scattered Clouds
3:35 PM 95.5 °F 94.4 °F 57.7 °F 28% 29.86 in 10.0 mi ESE 8.1 mph 19.6 mph N/A   Clear
3:55 PM 95.0 °F 94.0 °F 58.1 °F 29% 29.86 in 10.0 mi East 4.6 mph - N/A   Scattered Clouds
4:15 PM 95.2 °F 94.3 °F 58.3 °F 29% 29.86 in 10.0 mi SSE 6.9 mph 18.4 mph N/A   Scattered Clouds
4:35 PM 94.6 °F 93.9 °F 59.2 °F 30% 29.86 in 10.0 mi SE 8.1 mph - N/A   Scattered Clouds
4:55 PM 92.1 °F 91.4 °F 59.0 °F 33% 29.86 in 10.0 mi SE 6.9 mph - N/A   Clear
5:15 PM 93.0 °F 92.3 °F 59.0 °F 32% 29.86 in 10.0 mi SE 5.8 mph - N/A   Clear
5:35 PM 92.3 °F 91.3 °F 58.6 °F 32% 29.86 in 10.0 mi SE 4.6 mph - N/A   Clear
5:55 PM 91.4 °F 90.4 °F 58.6 °F 33% 29.87 in 10.0 mi SE 5.8 mph - N/A   Clear
6:15 PM 90.1 °F 89.3 °F 59.0 °F 35% 29.87 in 10.0 mi SE 3.5 mph - N/A   Clear
6:35 PM 89.1 °F 88.2 °F 59.0 °F 36% 29.87 in 10.0 mi SSE 4.6 mph - N/A   Clear
6:55 PM 87.8 °F 87.1 °F 59.4 °F 38% 29.88 in 10.0 mi SSE 4.6 mph - N/A   Clear
7:15 PM 86.2 °F 85.9 °F 59.9 °F 41% 29.88 in 10.0 mi SSE 3.5 mph - N/A   Clear
7:35 PM 85.1 °F 85.0 °F 60.3 °F 43% 29.89 in 10.0 mi South 3.5 mph - N/A   Clear
7:55 PM 85.1 °F 85.2 °F 60.8 °F 44% 29.90 in 10.0 mi Calm Calm - N/A   Clear
8:15 PM 84.4 °F 84.6 °F 61.2 °F 45% 29.91 in 10.0 mi SSE 3.5 mph - N/A   Clear
8:35 PM 84.4 °F 84.8 °F 61.7 °F 46% 29.92 in 10.0 mi SSE 5.8 mph - N/A   Clear
8:55 PM 84.7 °F 85.6 °F 62.8 °F 48% 29.93 in 10.0 mi SSE 8.1 mph - N/A   Scattered Clouds
9:15 PM 84.2 °F 85.4 °F 63.7 °F 50% 29.94 in 10.0 mi SSE 15.0 mph 19.6 mph N/A   Scattered Clouds
9:35 PM 83.1 °F 84.6 °F 64.4 °F 53% 29.95 in 10.0 mi SE 6.9 mph - N/A   Scattered Clouds
9:55 PM 82.0 °F 83.8 °F 64.8 °F 56% 29.95 in 10.0 mi SSE 10.4 mph 16.1 mph N/A   Scattered Clouds
10:15 PM 81.5 °F 83.4 °F 65.5 °F 58% 29.95 in 10.0 mi SSE 6.9 mph 16.1 mph N/A   Mostly Cloudy
10:35 PM 81.0 °F 83.0 °F 65.7 °F 60% 29.95 in 10.0 mi South 9.2 mph 17.3 mph N/A   Overcast
10:55 PM 80.4 °F 82.4 °F 65.8 °F 61% 29.95 in 10.0 mi South 6.9 mph - N/A Rain Light Rain
11:15 PM 80.1 °F 82.1 °F 66.2 °F 62% 29.95 in 10.0 mi South 8.1 mph - N/A   Mostly Cloudy
11:35 PM 79.3 °F - 66.2 °F 64% 29.95 in 10.0 mi South 8.1 mph - N/A   Mostly Cloudy
11:55 PM 79.0 °F - 66.4 °F 65% 29.95 in 10.0 mi South 9.2 mph - N/A   Mostly Cloudy